Location: Amanico Ergina Village
(37.7824°N, 122.4366°W)
Time: 08:26:28
(UTC+00:00)

Cosmos 2322 Rocket - Pass Details

Date: 29 October 2020
Orbit: 833 x 851 km, 71.0° (Epoch: 03 December)

Event Time Altitude Azimuth Distance (km) Brightness Sun altitude
Rises 13:22:51 0° 346° (NNW) 3,415 5.2 -14.3°
Reaches altitude 10° 13:25:35 10° 357° (N) 2,474 4.5 -13.8°
Maximum altitude 13:30:39 32° 60° (ENE) 1,404 3.9 -12.8°
Drops below altitude 10° 13:35:39 10° 123° (ESE) 2,450 5.7 -11.8°
Sets 13:38:19 0° 133° (SE) 3,378 6.4 -11.3°
